Group_ship,Cruise,JD_GMT,Date_DDMMYYYY,TIME_HH:MM:SS,Lat_dec_degree,Long_dec_degree,xCO2eq_ppm,xCO2a_ppm,Pres_Equi_hPa,Pres_sealevel_hPa,EqTemp_C,SST(TSG)_C,Sal(TSG)_Permil,Water_flow_l/min,Gasflow_IR_ml/min,Temp_IR_C,Pres_IR_hPa,Ship_heading_true_degree,Ship_speed_knot,Wind_dir_rel_degree,Wind_speed_rel_m/s,fCO2W@SST_uatm,Qcflag_water,fCO2a_uatm,Qcflag_air,dfCO2_uatm,Fluoro_ug/l,Wind_speed_true_m/s,Wind_dir_true_degree,Air_temp_C,Oxygen
AOML_Explorer,Ex0509W,59.057,28022005,1:21:40,25.146,-80.011,362.77,-9,1009.25,1006.37,24.78,24.89,36.199,0.98,75.69,32.26,1009.25,206.3,17.6,1,21.62,350.72,2,-9,9,-9,0.12,12.56,205.87,25.7,-9
AOML_Explorer,Ex0509W,59.058,28022005,1:24:13,25.135,-80.017,362.98,-9,1009.29,1006.64,24.79,24.89,36.2,1,75.46,32.25,1009.29,206.3,17.7,2,21.62,350.72,2,-9,9,-9,0.14,12.51,207.68,25.75,-9
AOML_Explorer,Ex0509W,59.06,28022005,1:26:46,25.124,-80.023,363.07,-9,1009.34,1006.65,24.79,24.87,36.205,1.03,75.62,32.24,1009.34,206.9,17.7,5,22.13,350.58,2,-9,9,-9,0.13,13.05,212.67,25.73,-9
AOML_Explorer,Ex0509W,59.062,28022005,1:29:19,25.112,-80.029,363.36,-9,1009.37,1006.67,24.79,24.81,36.218,1.03,75.63,32.24,1009.37,206.2,17.7,6,22.13,350.2,2,-9,9,-9,0.13,13.08,214.46,25.93,-9
AOML_Explorer,Ex0509W,59.064,28022005,1:31:52,25.101,-80.035,363.38,-9,1009.45,1006.96,24.75,24.72,36.241,1.04,75.66,32.23,1009.45,200.7,17.7,11,21.62,349.52,2,-9,9,-9,0.13,12.77,218.57,26.1,-9
AOML_Explorer,Ex0509W,59.066,28022005,1:34:25,25.089,-80.039,363.26,-9,1009.25,1006.65,24.69,24.61,36.271,1.02,75.75,32.21,1009.25,194.5,17.7,12,21.1,348.66,2,-9,9,-9,0.13,12.38,216.48,26.05,-9
AOML_Explorer,Ex0509W,59.067,28022005,1:36:58,25.077,-80.043,363.03,-9,1009.4,1006.94,24.59,24.54,36.288,1.01,75.49,32.2,1009.4,194.5,17.8,13,21.62,349.11,2,-9,9,-9,0.15,12.91,218.03,26.03,-9
AOML_Explorer,Ex0509W,59.069,28022005,1:39:31,25.065,-80.046,362.95,-9,1009.58,1006.91,24.52,24.49,36.309,1.03,75.51,32.19,1009.58,193.8,17.9,13,20.59,349.42,2,-9,9,-9,0.14,11.89,219.16,26.02,-9
AOML_Explorer,Ex0509W,59.071,28022005,1:42:04,25.052,-80.049,362.74,-9,1009.47,1006.93,24.47,24.5,36.295,1.03,75.72,32.18,1009.47,193.7,18,15,19.56,349.98,2,-9,9,-9,0.14,10.98,223.89,25.97,-9
AOML_Explorer,Ex0509W,59.073,28022005,1:44:37,25.04,-80.053,362.78,-9,1009.64,1006.95,24.44,24.51,36.291,1.05,75.77,32.17,1009.64,193.4,18.1,14,20.59,350.49,2,-9,9,-9,0.13,11.89,221.41,25.97,-9
AOML_Explorer,Ex0509W,59.074,28022005,1:47:10,25.028,-80.056,362.58,-9,1009.63,1007.19,24.44,24.52,36.281,1.06,75.81,32.16,1009.63,193.2,18.1,14,20.59,350.44,2,-9,9,-9,0.13,11.9,221.43,26.05,-9
AOML_Explorer,Ex0509W,59.076,28022005,1:49:43,25.015,-80.059,362.45,-9,1009.61,1007.20,24.45,24.51,36.285,1.07,75.56,32.15,1009.61,193.7,18.1,15,20.59,350.09,2,-9,9,-9,0.14,11.95,222.99,26.12,-9
AOML_Explorer,Ex0509W,59.078,28022005,1:52:16,25.003,-80.063,362.19,-9,1009.84,1007.22,24.46,24.51,36.283,1.04,75.7,32.14,1009.84,192.4,18.1,14,20.59,349.78,2,-9,9,-9,0.12,11.95,221.74,26.15,-9
AOML_Explorer,Ex0509W,59.08,28022005,1:54:49,24.99,-80.066,362,-9,1009.77,1007.20,24.43,24.6,36.262,1.05,75.8,32.13,1009.77,192.5,18.2,15,21.1,351.07,2,-9,9,-9,0.14,12.52,223.54,26.13,-9
AOML_Explorer,Ex0509W,59.082,28022005,1:57:22,24.978,-80.069,361.88,-9,1009.72,1006.95,24.48,24.68,36.209,1.04,75.61,32.13,1009.72,192.2,18.2,15,21.1,351.23,2,-9,9,-9,0.16,12.55,223.86,26.17,-9
AOML_Explorer,Ex0509W,59.083,28022005,1:59:55,24.965,-80.072,361.93,-9,1009.94,1007.17,24.55,24.77,36.162,1.07,75.55,32.12,1009.94,192.4,18.2,16,22.13,351.76,2,-9,9,-9,0.17,13.62,224.31,26.26,-9
AOML_Explorer,Ex0509W,59.093,28022005,2:14:01,24.895,-80.088,360.25,-9,1009.82,1006.62,24.83,24.98,36.036,1.08,75.97,32.11,1009.82,191.7,18.3,17,23.68,348.91,2,-9,9,-9,0.19,15.21,224.64,26.33,-9
AOML_Explorer,Ex0509W,59.095,28022005,2:16:34,24.882,-80.091,360.61,-9,1009.78,1006.94,24.86,25,36.035,1.06,75.61,32.11,1009.78,191.6,18.1,17,22.13,349.09,2,-9,9,-9,0.18,13.78,225.53,26.32,-9
AOML_Explorer,Ex0509W,59.097,28022005,2:19:07,24.87,-80.094,360.97,-9,1009.86,1006.96,24.88,25.02,36.042,1.09,75.77,32.11,1009.86,191.4,18,17,23.68,349.53,2,-9,9,-9,0.17,15.36,224.33,26.32,-9
AOML_Explorer,Ex0509W,59.098,28022005,2:21:40,24.857,-80.097,361.13,-9,1010.06,1007.16,24.91,25.07,36.046,1.09,75.44,32.11,1010.06,190.9,18,16,24.19,349.96,2,-9,9,-9,0.18,15.8,222.43,26.31,-9
AOML_Explorer,Ex0509W,59.1,28022005,2:24:13,24.845,-80.099,361.4,-9,1009.96,1007.21,24.94,25.12,36.068,1.1,75.69,32.1,1009.96,191.4,18,18,22.65,350.48,2,-9,9,-9,0.18,14.47,226.96,26.29,-9
AOML_Explorer,Ex0509W,59.102,28022005,2:26:46,24.832,-80.102,361.64,-9,1010.07,1007.21,24.99,25.12,36.072,1.07,75.52,32.1,1010.07,191.5,18,17,22.13,349.97,2,-9,9,-9,0.16,13.92,226.87,26.33,-9
AOML_Explorer,Ex0509W,59.104,28022005,2:29:19,24.82,-80.106,362.06,-9,1010.09,1007.46,25,25.13,36.085,1.1,75.54,32.09,1010.09,198.1,18,15,23.68,350.3,2,-9,9,-9,0.17,15.17,227.53,26.31,-9
AOML_Explorer,Ex0509W,59.105,28022005,2:31:52,24.808,-80.111,362.27,-9,1010,1007.15,25.01,25.15,36.106,1.11,75.67,32.07,1010,203.6,18,12,24.71,350.75,2,-9,9,-9,0.15,15.92,226.68,26.33,-9
AOML_Explorer,Ex0509W,59.107,28022005,2:34:25,24.797,-80.117,362.19,-9,1009.93,1006.90,25.02,25.2,36.12,1.11,75.58,32.07,1009.93,208.9,17.9,5,22.13,351.13,2,-9,9,-9,0.14,13.03,220.67,26.3,-9
AOML_Explorer,Ex0509W,59.109,28022005,2:36:58,24.786,-80.125,362.46,-9,1009.94,1006.68,25.05,25.24,36.112,1.1,75.68,32.06,1009.94,213.7,17.9,1,24.71,351.55,2,-9,9,-9,0.13,15.5,217.1,26.27,-9
AOML_Explorer,Ex0509W,59.111,28022005,2:39:31,24.775,-80.133,363.04,-9,1010.14,1007.16,25.09,25.28,36.115,1.08,75.42,32.05,1010.14,217.5,17.9,0,24.71,352.1,2,-9,9,-9,0.13,15.49,218.89,26.27,-9
AOML_Explorer,Ex0509W,59.113,28022005,2:42:04,24.766,-80.142,363.42,-9,1010.24,1007.20,25.14,25.28,36.112,1.13,75.75,32.04,1010.24,223.4,17.9,355,24.19,351.77,2,-9,9,-9,0.13,15.04,215.16,26.29,-9
AOML_Explorer,Ex0509W,59.114,28022005,2:44:37,24.757,-80.152,363.9,-9,1010.08,1007.19,25.15,25.28,36.113,1.12,75.8,32.03,1010.08,229.1,17.9,348,22.65,352.06,2,-9,9,-9,0.13,13.87,206.4,26.26,-9
AOML_Explorer,Ex0509W,59.116,28022005,2:47:10,24.749,-80.162,364.04,-9,1010.12,1006.98,25.15,25.3,36.12,1.13,75.53,32.03,1010.12,227.3,17.9,352,23.16,352.39,2,-9,9,-9,0.12,14.14,212.28,26.18,-9
AOML_Explorer,Ex0509W,59.118,28022005,2:49:43,24.74,-80.172,364.21,-9,1010.1,1007.20,25.15,25.29,36.141,1.11,75.64,32.02,1010.1,227.1,17.8,353,22.65,352.54,2,-9,9,-9,0.13,13.64,213.39,26.24,-9
AOML_Explorer,Ex0509W,59.12,28022005,2:52:16,24.732,-80.183,364.41,-9,1010.2,1007.20,25.17,25.26,36.146,1.14,75.78,32.01,1010.2,227.3,17.9,352,24.19,352.08,2,-9,9,-9,0.12,15.18,212.16,26.16,-9
AOML_Explorer,Ex0509W,59.121,28022005,2:54:49,24.723,-80.193,364.79,-9,1010.32,1007.19,25.16,25.19,36.166,1.12,75.52,32,1010.32,227.2,17.9,355,22.13,351.79,2,-9,9,-9,0.14,13.02,216.31,26.13,-9
AOML_Explorer,Ex0509W,59.123,28022005,2:57:22,24.714,-80.203,364.82,-9,1010.1,1006.97,25.12,25.16,36.139,1.15,75.75,32,1010.1,227.3,17.8,353,24.19,351.82,2,-9,9,-9,0.14,15.17,214.73,26.09,-9
AOML_Explorer,Ex0509W,59.178,28022005,4:16:34,24.458,-80.513,366.89,-9,1010.44,1008.00,25.47,25.63,36.047,1.42,75.95,31.65,1010.44,227.6,17.1,338,21.1,355.19,2,-9,9,-9,0.11,13.1,195.87,25.69,-9
AOML_Explorer,Ex0509W,59.18,28022005,4:19:07,24.45,-80.523,367.62,-9,1010.41,1007.73,25.49,25.63,36.048,1.41,75.94,31.67,1010.41,227.4,17.1,339,21.1,355.71,2,-9,9,-9,0.11,13.01,197.44,25.67,-9
AOML_Explorer,Ex0509W,59.182,28022005,4:21:40,24.441,-80.533,367.98,-9,1010.46,1007.69,25.49,25.64,36.042,1.41,75.57,31.68,1010.46,227.4,17.1,338,21.1,356.25,2,-9,9,-9,0.12,13.09,195.84,25.56,-9
AOML_Explorer,Ex0509W,59.183,28022005,4:24:13,24.433,-80.543,368.17,-9,1010.41,1007.67,25.5,25.64,36.051,1.4,74.88,31.69,1010.41,227.4,17.2,337,19.56,356.22,2,-9,9,-9,0.11,11.63,192.44,25.58,-9
AOML_Explorer,Ex0509W,59.185,28022005,4:26:46,24.425,-80.553,368.42,-9,1010.43,1007.73,25.5,25.61,36.058,1.42,75.93,31.7,1010.43,227.3,17.2,338,20.59,356.06,2,-9,9,-9,0.11,12.56,194.82,25.52,-9
AOML_Explorer,Ex0509W,59.187,28022005,4:29:19,24.417,-80.563,368.54,-9,1010.42,1007.99,25.49,25.58,36.069,1.42,75.46,31.7,1010.42,227.3,17.3,337,20.07,355.93,2,-9,9,-9,0.12,12.11,192.54,25.54,-9
AOML_Explorer,Ex0509W,59.189,28022005,4:31:52,24.409,-80.573,368.68,-9,1010.53,1007.72,25.47,25.53,36.092,1.41,75.22,31.71,1010.53,231.6,17.1,333,20.59,355.77,2,-9,9,-9,0.13,13.09,190.93,25.39,-9
AOML_Explorer,Ex0509W,59.191,28022005,4:34:25,24.402,-80.584,368.76,-9,1010.52,1007.69,25.43,25.46,36.091,1.43,75.25,31.71,1010.52,236.5,17,331,19.04,355.47,2,-9,9,-9,0.12,11.93,190.02,25.36,-9
AOML_Explorer,Ex0509W,59.192,28022005,4:36:58,24.396,-80.595,368.74,-9,1010.4,1007.72,25.37,25.44,36.089,1.41,75.56,31.71,1010.4,244.4,16.9,323,20.07,356.03,2,-9,9,-9,0.13,14.05,186.41,25.42,-9
AOML_Explorer,Ex0509W,59.194,28022005,4:39:31,24.391,-80.607,368.68,-9,1010.31,1007.71,25.33,25.43,36.096,1.4,75.5,31.72,1010.31,246.2,16.9,325,20.07,356.17,2,-9,9,-9,0.13,13.89,189.88,25.35,-9
AOML_Explorer,Ex0509W,59.196,28022005,4:42:04,24.386,-80.62,368.59,-9,1010.28,1007.68,25.32,25.4,36.1,1.41,75.33,31.72,1010.28,244.9,16.8,322,20.07,355.85,2,-9,9,-9,0.12,14.26,185.41,25.34,-9
AOML_Explorer,Ex0509W,59.198,28022005,4:44:37,24.381,-80.632,368.32,-9,1010.45,1007.66,25.3,25.38,36.104,1.42,75.34,31.72,1010.45,245.6,16.7,323,20.07,355.7,2,-9,9,-9,0.13,14.11,188.02,25.36,-9
AOML_Explorer,Ex0509W,59.199,28022005,4:47:10,24.376,-80.643,368.12,-9,1010.21,1007.70,25.27,25.36,36.107,1.44,75.2,31.72,1010.21,245.9,16.6,321,19.04,355.52,2,-9,9,-9,0.13,13.4,184.49,25.38,-9
AOML_Explorer,Ex0509W,59.201,28022005,4:49:43,24.372,-80.655,367.97,-9,1010.26,1007.44,25.26,25.41,36.107,1.41,75.56,31.73,1010.26,246.4,16.5,322,20.07,356.27,2,-9,9,-9,0.14,14.29,187.65,25.24,-9
AOML_Explorer,Ex0509W,59.203,28022005,4:52:16,24.367,-80.667,367.86,-9,1010.21,1007.66,25.27,25.45,36.113,1.4,75.3,31.73,1010.21,246.4,16.3,321,19.04,356.47,2,-9,9,-9,0.13,13.56,184.99,25.35,-9
AOML_Explorer,Ex0509W,59.205,28022005,4:54:49,24.362,-80.679,367.92,-9,1010.37,1007.43,25.31,25.46,36.115,1.42,75.6,31.74,1010.37,246.6,16.3,323,20.07,356.23,2,-9,9,-9,0.13,14.22,189.69,25.23,-9
AOML_Explorer,Ex0509W,59.207,28022005,4:57:22,24.358,-80.691,368.12,-9,1010.42,1007.43,25.33,25.51,36.119,1.44,75.26,31.74,1010.42,246.9,16.1,319,20.07,356.81,2,-9,9,-9,0.14,14.78,185.11,25.31,-9
AOML_Explorer,Ex0509W,59.208,28022005,4:59:55,24.353,-80.702,368.33,-9,1010.23,1007.67,25.36,25.54,36.12,1.43,74.86,31.75,1010.23,246.3,16.1,321,20.59,356.86,2,-9,9,-9,0.15,14.97,188.16,25.37,-9
AOML_Explorer,Ex0509W,59.222,28022005,5:19:07,24.319,-80.79,368.56,-9,1010.18,1007.45,25.36,25.43,36.189,1.42,75.51,31.83,1010.18,246.6,16.3,319,19.56,355.69,2,-9,9,-9,0.18,14.32,183.14,25.15,-9
AOML_Explorer,Ex0509W,59.223,28022005,5:21:40,24.314,-80.801,368.91,-9,1010.26,1007.74,25.33,25.41,36.196,1.42,75.55,31.83,1010.26,246.8,16.4,319,19.04,356.3,2,-9,9,-9,0.18,13.81,182.4,25.24,-9
AOML_Explorer,Ex0509W,59.225,28022005,5:24:13,24.309,-80.813,369.17,-9,1010.29,1007.71,25.31,25.41,36.197,1.42,75.31,31.84,1010.29,246.8,16.4,321,19.04,356.7,2,-9,9,-9,0.18,13.61,184.29,25.24,-9
AOML_Explorer,Ex0509W,59.227,28022005,5:26:46,24.305,-80.825,369.25,-9,1010.34,1007.46,25.3,25.42,36.198,1.42,75.66,31.84,1010.34,246.5,16.5,322,19.56,357.24,2,-9,9,-9,0.19,13.97,185.53,25.21,-9
AOML_Explorer,Ex0509W,59.229,28022005,5:29:19,24.3,-80.837,369.37,-9,1010.23,1007.44,25.3,25.43,36.201,1.43,75.27,31.83,1010.23,246.6,16.5,320,19.04,357.27,2,-9,9,-9,0.18,13.77,182.2,25.06,-9
AOML_Explorer,Ex0509W,59.23,28022005,5:31:52,24.295,-80.849,369.56,-9,1010.13,1007.43,25.31,25.41,36.202,1.43,75.29,31.84,1010.13,246.3,16.6,321,18.53,357.15,2,-9,9,-9,0.2,13.13,182.22,25.23,-9
AOML_Explorer,Ex0509W,59.232,28022005,5:34:25,24.291,-80.861,369.65,-9,1010.15,1007.46,25.3,25.41,36.201,1.42,75.57,31.83,1010.15,246.7,16.6,319,18.53,357.17,2,-9,9,-9,0.18,13.44,179.68,25.15,-9
AOML_Explorer,Ex0509W,59.234,28022005,5:36:58,24.286,-80.873,369.65,-9,1009.96,1007.19,25.29,25.4,36.203,1.42,75.2,31.83,1009.96,246.4,16.6,323,20.07,357.15,2,-9,9,-9,0.17,14.34,186.89,25.08,-9
AOML_Explorer,Ex0509W,59.236,28022005,5:39:31,24.281,-80.884,369.48,-9,1010.07,1007.19,25.29,25.39,36.202,1.42,74.85,31.83,1010.07,246.6,16.6,320,21.1,357.06,2,-9,9,-9,0.18,15.69,184.71,25.08,-9
AOML_Explorer,Ex0509W,59.238,28022005,5:42:04,24.277,-80.896,369.56,-9,1009.93,1007.20,25.28,25.39,36.203,1.42,75.25,31.83,1009.93,246.5,16.7,320,19.56,357.12,2,-9,9,-9,0.19,14.29,182.1,25.13,-9
AOML_Explorer,Ex0509W,59.239,28022005,5:44:37,24.272,-80.908,369.4,-9,1010.01,1007.43,25.28,25.38,36.205,1.43,75.5,31.83,1010.01,247,16.8,324,20.59,356.95,2,-9,9,-9,0.18,14.72,188.38,25.13,-9
AOML_Explorer,Ex0509W,59.241,28022005,5:47:10,24.267,-80.92,369.31,-9,1010.09,1007.22,25.27,25.38,36.209,1.42,75.43,31.83,1010.09,246.8,17,322,21.62,356.92,2,-9,9,-9,0.19,15.86,186.88,25.06,-9
AOML_Explorer,Ex0509W,59.243,28022005,5:49:43,24.262,-80.932,369.42,-9,1010.14,1007.43,25.27,25.37,36.208,1.41,75.38,31.83,1010.14,246.6,17,325,21.62,357.05,2,-9,9,-9,0.19,15.45,190.8,25.09,-9
AOML_Explorer,Ex0509W,59.245,28022005,5:52:16,24.258,-80.944,369.23,-9,1010.19,1007.46,25.26,25.38,36.211,1.43,75,31.83,1010.19,246.8,16.8,323,20.07,357.02,2,-9,9,-9,0.18,14.36,186.18,25.14,-9
AOML_Explorer,Ex0509W,59.246,28022005,5:54:49,24.253,-80.956,369.31,-9,1010.24,1007.19,25.27,25.37,36.208,1.4,74.94,31.83,1010.24,246.2,17,325,21.62,356.97,2,-9,9,-9,0.18,15.44,190.51,25.03,-9
AOML_Explorer,Ex0509W,59.262,28022005,6:16:34,24.212,-81.059,368.19,-9,1009.83,1007.17,25.34,25.45,36.158,1.42,75.56,31.91,1009.83,246.5,16.9,323,19.56,355.85,2,-9,9,-9,0.18,13.79,185.62,25.09,-9
AOML_Explorer,Ex0509W,59.263,28022005,6:19:07,24.208,-81.071,368.58,-9,1009.79,1007.20,25.34,25.43,36.163,1.43,75.49,31.91,1009.79,246.6,17.1,321,20.59,355.85,2,-9,9,-9,0.16,14.94,184.68,25.01,-9
AOML_Explorer,Ex0509W,59.265,28022005,6:21:40,24.203,-81.083,368.84,-9,1009.82,1007.18,25.32,25.42,36.162,1.43,75.44,31.92,1009.82,246.3,17.1,323,20.07,356.31,2,-9,9,-9,0.15,14.18,186.2,25.02,-9
AOML_Explorer,Ex0509W,59.267,28022005,6:24:13,24.198,-81.095,369.06,-9,1009.72,1006.89,25.31,25.44,36.138,1.42,75.56,31.92,1009.72,246.4,17.2,325,19.04,356.79,2,-9,9,-9,0.14,12.9,187.42,25.04,-9
AOML_Explorer,Ex0509W,59.269,28022005,6:26:46,24.193,-81.108,369.07,-9,1009.82,1007.16,25.31,25.45,36.134,1.41,75.34,31.92,1009.82,246.5,17.2,326,19.56,356.99,2,-9,9,-9,0.14,13.27,189.57,25.09,-9
AOML_Explorer,Ex0509W,59.27,28022005,6:29:19,24.188,-81.12,368.89,-9,1009.91,1007.44,25.33,25.47,36.128,1.45,75.11,31.92,1009.91,246.7,17.2,326,19.56,356.9,2,-9,9,-9,0.14,13.3,189.37,25.2,-9
AOML_Explorer,Ex0509W,59.272,28022005,6:31:52,24.184,-81.132,368.79,-9,1009.92,1007.18,25.34,25.49,36.128,1.42,75.13,31.92,1009.92,246.8,17.2,326,20.59,356.9,2,-9,9,-9,0.13,14.28,190.87,25.15,-9
AOML_Explorer,Ex0509W,59.274,28022005,6:34:25,24.179,-81.144,368.64,-9,1010.02,1007.42,25.36,25.49,36.139,1.43,75.64,31.92,1010.02,246.4,17.3,324,20.07,356.48,2,-9,9,-9,0.14,14.02,186.99,25.26,-9
AOML_Explorer,Ex0509W,59.276,28022005,6:36:58,24.174,-81.157,368.67,-9,1009.8,1007.18,25.37,25.49,36.144,1.45,75.1,31.92,1009.8,246.7,17.3,327,19.04,356.34,2,-9,9,-9,0.14,12.68,189.62,25.18,-9
AOML_Explorer,Ex0509W,59.277,28022005,6:39:31,24.169,-81.169,368.8,-9,1009.81,1007.16,25.37,25.5,36.145,1.43,75.83,31.92,1009.81,246.5,17.3,326,20.07,356.53,2,-9,9,-9,0.15,13.78,189.53,25.17,-9
AOML_Explorer,Ex0509W,59.279,28022005,6:42:04,24.164,-81.181,368.88,-9,1009.71,1006.90,25.37,25.5,36.142,1.42,75.38,31.92,1009.71,246.7,17.2,328,20.59,356.57,2,-9,9,-9,0.14,14.05,193.27,25.25,-9
AOML_Explorer,Ex0509W,59.281,28022005,6:44:37,24.159,-81.193,369.01,-9,1009.58,1006.93,25.37,25.51,36.138,1.41,75.87,31.92,1009.58,246.4,17.2,327,18.53,356.73,2,-9,9,-9,0.13,12.25,188.46,25.22,-9
AOML_Explorer,Ex0509W,59.283,28022005,6:47:10,24.154,-81.206,369.17,-9,1009.55,1006.65,25.38,25.49,36.137,1.44,75.15,31.92,1009.55,246.5,17.4,324,18.53,356.53,2,-9,9,-9,0.13,12.61,183.98,25.22,-9
AOML_Explorer,Ex0509W,59.285,28022005,6:49:43,24.15,-81.218,369.06,-9,1009.36,1006.62,25.37,25.48,36.14,1.41,75.43,31.92,1009.36,246.5,17.3,325,19.04,356.27,2,-9,9,-9,0.13,13,186.08,25.15,-9
AOML_Explorer,Ex0509W,59.286,28022005,6:52:16,24.145,-81.23,369.24,-9,1009.13,1006.40,25.36,25.46,36.142,1.4,75.15,31.92,1009.13,246.9,17.4,323,19.56,356.31,2,-9,9,-9,0.13,13.77,184.06,25.18,-9
AOML_Explorer,Ex0509W,59.288,28022005,6:54:49,24.14,-81.243,368.9,-9,1009.1,1006.38,25.36,25.41,36.163,1.42,75.17,31.92,1009.1,246.5,17.6,323,18.53,355.44,2,-9,9,-9,0.13,12.72,182.06,25.18,-9
AOML_Explorer,Ex0509W,59.29,28022005,6:57:22,24.135,-81.255,368.71,-9,1009.15,1006.41,25.32,25.4,36.157,1.42,75.25,31.92,1009.15,246.5,17.6,322,18.53,355.61,2,-9,9,-9,0.14,12.82,181.02,25.2,-9
AOML_Explorer,Ex0509W,59.292,28022005,6:59:55,24.13,-81.268,368.43,-9,1009.23,1006.40,25.3,25.4,36.152,1.42,75.08,31.92,1009.23,246.4,17.6,324,19.04,355.72,2,-9,9,-9,0.13,13.02,184.43,25.21,-9
AOML_Explorer,Ex0509W,59.303,28022005,7:16:34,24.098,-81.35,365.66,-9,1009.02,1006.11,25.31,25.46,36.132,1.43,75.16,31.98,1009.02,246.6,17.6,327,19.04,353.56,2,-9,9,-9,0.14,12.56,189.28,25.2,-9
AOML_Explorer,Ex0509W,59.305,28022005,7:19:07,24.093,-81.362,366.25,-9,1009.01,1006.40,25.33,25.45,36.133,1.42,75.28,31.99,1009.01,246.6,17.7,326,19.56,353.72,2,-9,9,-9,0.12,13.14,188.62,25.29,-9
AOML_Explorer,Ex0509W,59.307,28022005,7:21:40,24.088,-81.375,366.69,-9,1008.82,1006.12,25.33,25.49,36.126,1.42,75.35,31.99,1008.82,246.3,17.7,323,19.04,354.51,2,-9,9,-9,0.11,13.12,182.9,25.28,-9
AOML_Explorer,Ex0509W,59.308,28022005,7:24:13,24.083,-81.388,367.06,-9,1008.79,1006.10,25.34,25.5,36.13,1.42,75.64,31.99,1008.79,246.6,17.8,324,20.07,354.92,2,-9,9,-9,0.12,13.89,186.29,25.28,-9
AOML_Explorer,Ex0509W,59.31,28022005,7:26:46,24.078,-81.4,367.43,-9,1008.9,1006.09,25.37,25.49,36.126,1.42,75.33,31.99,1008.9,246.8,17.9,320,20.07,354.74,2,-9,9,-9,0.11,14.44,181.13,25.26,-9
AOML_Explorer,Ex0509W,59.312,28022005,7:29:19,24.073,-81.413,367.68,-9,1008.87,1006.12,25.37,25.49,36.124,1.4,75.58,31.99,1008.87,246.6,17.9,323,19.04,355.04,2,-9,9,-9,0.11,13.08,182.87,25.29,-9
AOML_Explorer,Ex0509W,59.314,28022005,7:31:52,24.068,-81.426,367.93,-9,1008.79,1006.08,25.37,25.48,36.124,1.42,75.38,31.99,1008.79,246.9,18,324,20.07,355.19,2,-9,9,-9,0.12,13.85,186.14,25.41,-9
AOML_Explorer,Ex0509W,59.316,28022005,7:34:25,24.063,-81.438,368.03,-9,1008.72,1006.11,25.37,25.49,36.121,1.42,75.41,31.99,1008.72,246.9,18,322,19.04,355.32,2,-9,9,-9,0.12,13.16,182.01,25.33,-9
AOML_Explorer,Ex0509W,59.317,28022005,7:36:58,24.057,-81.451,368.16,-9,1008.73,1006.11,25.37,25.49,36.119,1.45,75.47,31.99,1008.73,246.6,18,327,21.62,355.47,2,-9,9,-9,0.12,14.87,192.18,25.4,-9
AOML_Explorer,Ex0509W,59.319,28022005,7:39:31,24.052,-81.464,368.18,-9,1008.85,1006.07,25.37,25.49,36.12,1.42,75.34,31.98,1008.85,246.8,18,326,20.07,355.58,2,-9,9,-9,0.12,13.54,188.99,25.44,-9
AOML_Explorer,Ex0509W,59.321,28022005,7:42:04,24.047,-81.477,368.14,-9,1008.93,1005.82,25.37,25.5,36.119,1.42,75.35,31.98,1008.93,246.4,18,323,21.62,355.54,2,-9,9,-9,0.12,15.37,187.06,25.38,-9
AOML_Explorer,Ex0509W,59.323,28022005,7:44:37,24.042,-81.49,368.01,-9,1008.9,1006.10,25.38,25.5,36.118,1.41,75.04,31.97,1008.9,246.6,18,326,22.13,355.41,2,-9,9,-9,0.11,15.45,191.88,25.4,-9
AOML_Explorer,Ex0509W,59.324,28022005,7:47:10,24.037,-81.502,368.08,-9,1008.81,1006.11,25.38,25.52,36.114,1.42,74.99,31.97,1008.81,246.9,17.9,323,21.62,355.63,2,-9,9,-9,0.12,15.42,187.46,25.49,-9
AOML_Explorer,Ex0509W,59.326,28022005,7:49:43,24.032,-81.515,368.08,-9,1008.9,1006.09,25.39,25.53,36.111,1.42,75.1,31.97,1008.9,247.3,17.9,325,22.65,355.62,2,-9,9,-9,0.12,16.16,191.42,25.39,-9
AOML_Explorer,Ex0509W,59.328,28022005,7:52:16,24.027,-81.528,368,-9,1008.87,1005.81,25.4,25.54,36.108,1.39,75.08,31.96,1008.87,247.1,17.9,324,22.13,355.46,2,-9,9,-9,0.12,15.82,189.11,25.31,-9
AOML_Explorer,Ex0509W,59.33,28022005,7:54:49,24.022,-81.541,368.11,-9,1008.95,1006.10,25.41,25.56,36.101,1.41,75.08,31.96,1008.95,246.9,18,331,23.16,355.75,2,-9,9,-9,0.11,15.84,199.75,25.34,-9
AOML_Explorer,Ex0509W,59.332,28022005,7:57:22,24.017,-81.553,368.18,-9,1008.9,1006.13,25.42,25.57,36.101,1.41,75,31.95,1008.9,246.8,18,326,20.07,355.86,2,-9,9,-9,0.12,13.54,189.02,25.39,-9
AOML_Explorer,Ex0509W,59.333,28022005,7:59:55,24.012,-81.566,368.21,-9,1008.93,1006.10,25.44,25.58,36.097,1.42,75.16,31.95,1008.93,246.5,18,324,22.13,355.81,2,-9,9,-9,0.12,15.71,189.05,25.42,-9
AOML_Explorer,Ex0509W,59.345,28022005,8:16:34,23.983,-81.651,367.58,-9,1008.86,1006.06,25.51,25.65,36.074,1.39,75.64,31.99,1008.86,248.9,17.7,322,23.68,355.08,2,-9,9,-9,0.13,17.69,189.74,25.33,-9
AOML_Explorer,Ex0509W,59.347,28022005,8:19:07,23.978,-81.663,368.26,-9,1008.89,1006.06,25.51,25.66,36.073,1.4,75.49,31.99,1008.89,241.9,17.9,329,22.65,355.89,2,-9,9,-9,0.12,15.48,193.23,25.32,-9
AOML_Explorer,Ex0509W,59.348,28022005,8:21:40,23.972,-81.676,368.72,-9,1008.84,1006.05,25.52,25.67,36.072,1.39,75.3,31.99,1008.84,241.7,18.1,333,21.1,356.31,2,-9,9,-9,0.12,13.45,196.8,25.36,-9
AOML_Explorer,Ex0509W,59.35,28022005,8:24:13,23.966,-81.688,369.12,-9,1008.94,1006.37,25.53,25.67,36.076,1.42,75.16,31.99,1008.94,244.6,18,338,22.13,356.66,2,-9,9,-9,0.12,13.99,208.01,25.22,-9
AOML_Explorer,Ex0509W,59.352,28022005,8:26:46,23.96,-81.701,369.43,-9,1008.82,1005.81,25.54,25.68,36.071,1.41,75.38,31.99,1008.82,243.8,17.9,331,21.1,356.86,2,-9,9,-9,0.11,13.78,195.96,25.29,-9
AOML_Explorer,Ex0509W,59.354,28022005,8:29:19,23.955,-81.713,369.56,-9,1008.79,1005.84,25.54,25.69,36.071,1.42,75.26,31.99,1008.79,243.7,17.9,331,21.62,357.07,2,-9,9,-9,0.11,14.27,196.64,25.26,-9
AOML_Explorer,Ex0509W,59.355,28022005,8:31:52,23.949,-81.726,369.75,-9,1008.89,1006.11,25.55,25.7,36.066,1.42,75.24,31.99,1008.89,246.7,18,331,22.65,357.23,2,-9,9,-9,0.12,15.21,200.72,25.22,-9
AOML_Explorer,Ex0509W,59.357,28022005,8:34:25,23.944,-81.738,369.82,-9,1008.72,1006.09,25.55,25.69,36.07,1.42,75.39,31.98,1008.72,244.5,18,331,21.62,357.17,2,-9,9,-9,0.12,14.24,197.14,25.32,-9
AOML_Explorer,Ex0509W,59.359,28022005,8:36:58,23.939,-81.751,369.96,-9,1008.71,1005.82,25.56,25.69,36.069,1.42,75.2,31.98,1008.71,247.8,17.9,327,21.62,357.17,2,-9,9,-9,0.11,14.91,193.51,25.35,-9
AOML_Explorer,Ex0509W,59.361,28022005,8:39:31,23.934,-81.764,370,-9,1008.64,1005.83,25.55,25.68,36.068,1.41,75.22,31.97,1008.64,247.3,18,332,21.62,357.12,2,-9,9,-9,0.11,14.16,200.94,25.19,-9
AOML_Explorer,Ex0509W,59.363,28022005,8:42:04,23.929,-81.777,369.99,-9,1008.59,1005.83,25.55,25.69,36.064,1.42,75.48,31.96,1008.59,247.1,17.9,329,21.62,357.33,2,-9,9,-9,0.11,14.57,196.4,25.2,-9
AOML_Explorer,Ex0509W,59.364,28022005,8:44:37,23.924,-81.79,370,-9,1008.56,1005.79,25.55,25.7,36.06,1.42,75.12,31.95,1008.56,246.8,17.9,330,20.59,357.42,2,-9,9,-9,0.11,13.45,196.36,25.3,-9
AOML_Explorer,Ex0509W,59.366,28022005,8:47:10,23.919,-81.802,370.06,-9,1008.48,1005.56,25.56,25.72,36.056,1.41,75.15,31.94,1008.48,247,17.9,330,21.1,357.52,2,-9,9,-9,0.11,13.94,197.29,25.07,-9
AOML_Explorer,Ex0509W,59.368,28022005,8:49:43,23.914,-81.815,370,-9,1008.37,1005.26,25.57,25.73,36.052,1.41,74.86,31.94,1008.37,246.4,17.8,331,22.13,357.45,2,-9,9,-9,0.11,14.81,199.88,25.02,-9
AOML_Explorer,Ex0509W,59.37,28022005,8:52:16,23.909,-81.828,370.03,-9,1008.39,1005.54,25.58,25.73,36.052,1.43,75.36,31.93,1008.39,246.6,17.8,328,21.62,357.37,2,-9,9,-9,0.1,14.69,195.06,25.07,-9
AOML_Explorer,Ex0509W,59.371,28022005,8:54:49,23.904,-81.84,370.14,-9,1008.43,1005.51,25.59,25.75,36.046,1.42,74.95,31.92,1008.43,246.1,17.9,332,21.62,357.6,2,-9,9,-9,0.11,14.17,200.22,25.22,-9
AOML_Explorer,Ex0509W,59.373,28022005,8:57:22,23.899,-81.853,370.22,-9,1008.3,1005.56,25.6,25.76,36.044,1.44,75.53,31.91,1008.3,246.3,17.8,330,20.59,357.64,2,-9,9,-9,0.1,13.47,196.28,25.17,-9
AOML_Explorer,Ex0509W,59.375,28022005,8:59:55,23.894,-81.866,370.27,-9,1008.32,1005.53,25.61,25.78,36.042,1.41,75.04,31.9,1008.32,246.7,17.8,331,20.59,357.88,2,-9,9,-9,0.12,13.38,197.67,25.24,-9